Location: Krasnoyarskiy Pitomnik
(51.1333°N, 71.6167°E)
Time: 21:39:04
(UTC+00:00)

A-11 Canister half - Pass Details

Date: 24 April 2024
Orbit: 1525 x 1683 km, 47.3° (Epoch: 19 May)

Event Time Altitude Azimuth Distance (km) Brightness Sun altitude
Rises 07:27:42 0° 288° (WNW) 4,942 11.6 51.8°
Reaches altitude 10° 07:31:53 10° 274° (W) 3,948 11.3 51.7°
Maximum altitude 07:38:47 21° 230° (SW) 3,119 11.5 51.5°
Drops below altitude 10° 07:45:36 10° 186° (S) 3,891 12.0 51.3°
Sets 07:49:43 0° 172° (S) 4,851 12.2 51.2°
